Location: Sweet Grass
(48.9965°N, 111.9649°W)
Time: 07:21:00
(UTC+00:00)

N. Korean satellite - Pass Details

Date: 30 November 2022
Orbit: 407 x 442 km, 97.3° (Epoch: 04 February)

Event Time Altitude Azimuth Distance (km) Brightness Sun altitude
Rises 12:18:55 0° 21° (NNE) 2,530 10.4 -25.5°
Reaches altitude 10° 12:21:08 10° 31° (NNE) 1,645 9.5 -25.1°
Maximum altitude 12:24:21 32° 96° (E) 825 8.3 -24.6°
Drops below altitude 10° 12:27:32 10° 162° (SSE) 1,617 9.5 -24.1°
Sets 12:29:41 0° 172° (S) 2,479 10.3 -23.7°
